Regional Weather Roundup
Issued by NWS Sterling, VA

Home | Current Version | Previous Version | Graphics & Text | Print | Product List | Glossary On
Versions: 1 2 3 4 5 6 7 8 9 10 11 12 13 14 15 16 17 18 19 20 21 22 23 24 25 26 27 28 29 30 31 32 33 34 35 36 37 38 39 40 41 42 43 44 45 46 47 48 49 50
000
ASUS41 KLWX 280810
RWRLWX

REGIONAL WEATHER ROUNDUP
NATIONAL WEATHER SERVICE BALTIMORE MD/WASHINGTON DC
300 AM EST WED JAN 28 2015

Note: "FAIR" indicates few or no clouds below 12,000 feet
with no significant weather and/or obstructions to visibility.
 TC=TEMPERATURE CELSIUS

 * =Non NWS site. Station does not report precipitation (e.g. rain,
    snow, etc.), thunder, or fog.

DCZ001-MDZ009-015-VAZ040>042-051-053>054-280900-
WASHINGTON METRO

CITY           SKY/WX    TMP DP  RH WIND       PRES   REMARKS
WASHINGTON NAT PTCLDY    27  11  51 NW20G28   30.07R WCI  13
DULLES         CLEAR     23  11  60 NW17G25   30.06R WCI   9
ANDREWS AFB    CLEAR     24  11  57 NW16      30.03R WCI  11
FT BELVOIR     CLEAR     25  11  54 NW15G23   30.07R WCI  13
QUANTICO       CLEAR     26  11  52 N14G28    30.08R WCI  14
COLLEGE PARK*  CLEAR     27  12  54 NW8       30.06R WCI  18
LEESBURG*      CLEAR     25  16  68 NW14G29   30.08R WCI  13
MANASSAS*      CLEAR     25  16  68 NW16      30.07R WCI  12
GAITHERSBURG*  CLEAR     19   9  63 NW14G20   30.07R WCI   6

$$

MDZ006>007-011-014-280900-
BALTIMORE METRO

CITY           SKY/WX    TMP DP  RH WIND       PRES   REMARKS
BWI AIRPORT    CLEAR     23   8  52 NW14G23   30.03R WCI  11
MD SCIENCE CTR   N/A     24   7  48 MISG      30.04R
MARTIN STATE   CLEAR     25  10  54 W13       30.05R WCI  13
ANNAPOLIS      CLEAR     27  12  53 NW16      30.03R WCI  15
FORT MEADE*    CLEAR     23  12  63 NW9       30.07R WCI  13

$$

MDZ012-015-019>023-280900-
MARYLAND EASTERN SHORE

CITY           SKY/WX    TMP DP  RH WIND       PRES   REMARKS
OCEAN CITY     CLEAR     25  11  55 N24G31    29.97R WCI   9
SALISBURY      CLEAR     27  11  51 N14G30    29.99R WCI  16
BAY BRIDGE AP*   N/A     28  10  47 NW15G24   30.04R WCI  17
CAMBRIDGE*     CLEAR     30  14  51 NW17G26   30.00R WCI  18
EASTON*        CLEAR     27  14  58 N16       30.05R WCI  14

$$

MDZ017>025-280900-
SOUTHERN MARYLAND

CITY           SKY/WX    TMP DP  RH WIND       PRES   REMARKS
PATUXENT RIVER CLEAR     27  13  55 NW16G26   30.02R WCI  15
ST INIGOES     CLEAR     28  13  53 NW8G21    30.01R WCI  20
LEONARDTOWN*   CLEAR     28  14  54 NW10G17   30.04R WCI  19

$$

MDZ003>005-280900-
NORTH CENTRAL MARYLAND

CITY           SKY/WX    TMP DP  RH WIND       PRES   REMARKS
FREDERICK*     CLEAR     23   7  50 NW7       30.10R
HAGERSTOWN APT CLEAR     18   7  62 NW15      30.07R WCI   4
WESTMINSTER*   PTCLDY    18   9  68 NW8       30.01R WCI   7

$$

MDZ501>502-280900-
WESTERN MARYLAND

CITY           SKY/WX    TMP DP  RH WIND       PRES   REMARKS
OAKLAND*       CLOUDY    10 N/A N/A W3        29.99R
CUMBERLAND*    CLEAR     21  10  63 N5        30.18R

$$

VAZ025>031-280900-
SHENANDOAH VALLEY

CITY           SKY/WX    TMP DP  RH WIND       PRES   REMARKS
WINCHESTER*    CLEAR     23  10  58 NW17      30.08S WCI   9
FRONT ROYAL*   FAIR      23  12  63 NW5       30.08R
LURAY*         FAIR      27  14  59 NW5       30.08R
NEW MARKET*    FAIR      19  14  83 CALM      30.09R
STAUNTON*      CLEAR     18  14  82 CALM      30.08R
WAYNESBORO*    FAIR      19  12  74 NW3       30.05R

$$

WVZ021-048>050-054>055-280900-
EASTERN WEST VIRGINIA PANHANDLE

CITY           SKY/WX    TMP DP  RH WIND       PRES   REMARKS
MARTINSBURG    CLEAR     22   9  57 NW15      30.10R WCI   9
PETERSBURG*    CLEAR     17  14  87 CALM      30.13R

$$

VAZ036>039-050-280900-
CENTRAL FOOTHILLS

CITY           SKY/WX    TMP DP  RH WIND       PRES   REMARKS
CHARLOTTESVILL CLEAR     28  12  51 NW10G18   30.04R WCI  19
CULPEPER*      FAIR      27  12  54 N9        30.06S WCI  17
ORANGE*        CLEAR     28  12  50 NW3       30.06R
GORDONSVILLE*  FAIR      27  15  61 CALM      30.05R
WARRENTON*     FAIR      26  17  68 NW12      30.06R WCI  16

$$

VAZ055>057-280900-
NORTH AND CENTRAL PIEDMONT

CITY           SKY/WX    TMP DP  RH WIND       PRES   REMARKS
FREDERICKSBRG* CLEAR     28  14  56 N10G16    30.06R WCI  19
STAFFORD*      CLEAR     25  12  57 NW15G26   30.10R WCI  13

$$

NCZ024-NYZ072-PAZ021-071-VAZ022-071-280900-
OTHER REGIONAL OBSERVATIONS

CITY           SKY/WX    TMP DP  RH WIND       PRES   REMARKS
NEW YORK CITY  CLEAR     17   0  47 W7G20     29.92R
PHILADELPHIA   PTCLDY    20   5  52 NW14      30.00R WCI   7
PITTSBURGH     FLURRIES  14   9  80 W6        30.17R
ROANOKE        PTCLDY    22  11  62 NW7       30.11R
RICHMOND       MOCLDY    30  14  51 N14G21    30.04R WCI  19
RALEIGH        PTCLDY    28  11  48 NW6       30.06R

$$

ANZ530>537-280900-
MARINE OBSERVATIONS

STATION/POSITION TIME  TEMP    WIND        PRES
                       AIR SEA DIR/SP/G
                 (UTC) (F)     (DEG/KT/KT) (MB)
THOMAS PT LIGHT  0800   27 36  330/ 21/ 24 1017.6R
BALT KEY BRIDGE  0800   26     310/ 18/ 22 1016.7R
COVE POINT       0800   27     350/ 29/ 33 1016.0R
LEWISETTA        0800   29 37  340/ 15/ 21 1016.5R
SOLOMONS ISLAND  0800      38                N/A
PINEY POINT      0800          350/ 22/ 24   N/A

$$



USA.gov is the U.S. government's official web portal to all federal, state and local government web resources and services.